Location: *
(31.2983°S, 151.4094°E)
Time: 14:50:05
(UTC+00:00)

Cosmos 1933 - Pass Details

Date: 25 August 2019
Orbit: 547 x 564 km, 82.5° (Epoch: 19 September)

Event Time Altitude Azimuth Distance (km) Brightness Sun altitude
Rises 18:58:22 0° 192° (SSW) 2,787 6.8 -17.9°
Reaches altitude 10° 19:00:35 10° 196° (SSW) 1,880 5.9 -17.4°
Maximum altitude 19:04:38 55° 273° (W) 686 3.4 -16.5°
Drops below altitude 10° 19:08:37 10° 351° (N) 1,844 5.9 -15.7°
Sets 19:10:47 0° 355° (N) 2,728 6.9 -15.2°
